Погода в Палау

Италия     41°10′46″N   9°22′55″E
темп.,
°C
ветер,
м/с
пор.,
м/с
влажн.,
%
обл.,
%
осадки,
мм/ч
давл.,
гПа
погр.,
м
16 мая, вс
вс1623:00+16зюз5968100 0.0 1014231
02:00+16зюз71368100 0.0 1012339
05:00+16з91471100 0.0 1011335
08:00+16з8127499 0.0 1011247
11:00+17зсз91175100 0.0 1012237
14:00+18зсз121574100 0.0 1011307
17:00+17з101584100 0.0 1010319
20:00+17з101488100 0.0 1010303
17 мая, пн
пн1723:00+17з101489100 0.0 1011411
02:00+17з11158838 0.0 1011495
05:00+16зюз11148632 0.0 1011461
08:00+17з121579100 0.0 1013730
11:00+16з13177190 0.0 1014858
14:00+16з141769100 0.0 1014776
17:00+16з14187046 0.0 1014753
20:00+16з1417725 0.0 1014782
18 мая, вт
вт1823:00+16з14187371 0.0 1015772
02:00+16з1417774 0.0 1015800
05:00+16з1316785 0.0 1015787
08:00+16з13177770 0.0 1016966
11:00+16з1519716 0.0 10171079
14:00+16з16217061 0.0 10171157
17:00+16зсз17227290 0.0 10161266
20:00+16зсз15216913 0.0 10171173
19 мая, ср
ср1923:00+17зсз12176995 0.0 10191008
02:00+17з141770100 0.0 1018538
05:00+16з13167110 0.0 1018580
08:00+16з1316738 0.0 1019600
11:00+16з1416735 0.0 1021694
14:00+16з15177257 0.0 1020835
17:00+16з1517726 0.0 1019844
20:00+16з1415755 0.0 1019645
20 мая, чт
чт2023:00+16з11127552 0.0 1021510
02:00+16з10137523 0.0 1021513
05:00+16з10128096 0.0 1021502
08:00+16з79780 0.0 1022411
11:00+16зсз78795 0.0 1023336
14:00+17зсз912745 0.0 1022312
17:00+18з912715 0.0 1021321
20:00+17зюз687217 0.0 1021241